[[{"header":{"parameterUnit":"m.s-1","parameterCategory":1,"la1":30.2991,"la2":30.254,"lo1":-89.0895,"lo2":-89.0444,"dy":0.0017,"dx":0.0017,"nx":28,"ny":28,"refTime":"2024-08-24T03:00:00:Z","depth":0,"parameterNumber":2,"parameterNumberName":"U-component_of_WINDS"},"data":[0,0,0,0,0,0,0,0,0,0,0,0,0,0,0,0,0,0,0,0,0,0,0,0,0,0,0,0,0,0,0,0,0,0,0,0,0,0,0,0,0,0,0,0,0,0,0,0,0,0,0,0,0,0,0,0,0,0,-3.5505,-3.5505,0,-3.5519,-3.552,-3.552,-3.5401,-3.5398,-3.5395,-3.5392,-3.5407,-3.541,-3.5414,0,0,0,0,0,0,0,0,0,0,0,0,0,-3.5376,-3.5379,-3.5505,-3.5505,-3.5505,-3.5519,-3.552,-3.552,-3.5402,-3.5398,-3.5394,-3.539,-3.5406,-3.541,-3.5414,0,0,0,0,0,0,0,0,0,0,0,0,0,-3.5415,-3.538,-3.5505,-3.5448,-3.5443,-3.5519,-3.552,-3.552,-3.5403,-3.5398,-3.5393,-3.5388,-3.5405,-3.541,-3.5415,-3.5546,0,0,-3.5431,-3.5433,0,0,0,0,0,0,0,0,-3.5413,-3.542,-3.5456,-3.5452,-3.5447,-3.5453,-3.548,-3.5529,-3.5404,-3.5418,-3.5391,-3.5386,-3.5427,-3.543,-3.5443,-3.5547,-3.5548,-3.5431,-3.5434,-3.5437,-3.5438,0,0,0,0,0,0,0,-3.5411,-3.5419,-3.5511,-3.5457,-3.5451,-3.5422,-3.5422,-3.5488,-3.545,-3.5416,-3.5408,-3.5411,-3.5423,-3.5439,-3.5443,-3.5548,-3.5431,-3.5436,-3.5439,-3.5441,-3.576,-3.5765,0,0,0,0,0,0,-3.5416,-3.5417,-3.551,-3.5511,-3.5417,-3.5429,-3.5429,-3.5456,-3.5449,-3.5443,-3.5415,-3.5406,-3.5432,-3.5437,-3.5443,-3.5595,-3.5437,-3.5442,-3.5445,-3.5755,-3.5761,-3.5767,0,0,0,0,0,0,-3.5413,-3.5425,-3.551,-3.5462,-3.5471,-3.5436,-3.5468,-3.5459,-3.5474,-3.5448,-3.5441,-3.5438,-3.5428,-3.5436,-3.5521,-3.5594,-3.5444,-3.5449,-3.5749,-3.5757,-3.5764,-3.5902,0,0,0,0,0,0,-3.541,-3.5425,-3.5474,-3.5464,-3.5474,-3.5588,-3.5473,-3.5463,-3.5484,-3.5471,-3.5468,-3.5462,-3.5425,-3.5514,-3.5527,-3.5599,-3.5453,-3.5742,-3.5752,-3.5762,-3.5891,-3.5913,-3.5933,0,0,0,0,0,-3.5406,-3.5512,-3.5477,-3.5489,-3.5534,-3.5592,-3.5598,-3.5552,-3.549,-3.5539,-3.5523,-3.5462,-3.5585,-3.5524,-3.5537,-3.5612,-3.5737,-3.5749,-3.5761,-3.5881,-3.5909,-3.5933,0,0,0,0,0,0,-3.5532,-3.551,-3.5471,-3.5577,-3.5588,-3.5572,-3.5632,-3.5584,-3.5612,-3.5599,-3.5542,-3.5542,-3.5637,-3.5633,-3.5566,-3.5738,-3.565,-3.5665,-3.5737,-3.5763,-3.5784,-3.5782,-3.5457,0,0,0,0,0,-3.5572,-3.5621,-3.5599,-3.5695,-3.5703,-3.5668,-3.5691,-3.5655,-3.5664,-3.5667,-3.5657,-3.5667,-3.5708,-3.5736,-3.5772,-3.5891,-3.5888,-3.5949,-3.597,-3.5987,-3.6,-3.6062,-3.6089,-3.5806,-3.5806,-3.5806,0,0,-3.5656,-3.565,-3.5684,-3.5721,-3.5724,-3.5776,-3.5672,-3.573,-3.5768,-3.5676,-3.5756,-3.5749,-3.5757,-3.586,-3.5905,-3.586,-3.6078,-3.6003,-3.6017,-3.602,-3.6077,-3.6104,-3.6128,-3.5815,-3.5813,-3.5812,0,0,-3.5833,-3.5835,-3.5914,-3.592,-3.5927,-3.5903,-3.5923,-3.5915,-3.5907,-3.5986,-3.5918,-3.5963,-3.6035,-3.6043,-3.6057,-3.624,-3.6185,-3.6254,-3.6364,-3.6425,-3.6447,-3.6466,-3.653,-3.6554,-3.6267,-3.6268,-3.6268,0,-3.5935,-3.601,-3.5961,-3.6024,-3.6042,-3.5963,-3.6042,-3.6051,-3.607,-3.6084,-3.6034,-3.6122,-3.6123,-3.6225,-3.627,-3.6285,-3.6305,-3.6252,-3.6448,-3.6467,-3.6484,-3.6544,-3.6568,-3.6276,-3.6275,-3.6274,-3.6273,0,-3.6135,-3.6188,-3.6251,-3.6271,-3.6297,-3.6369,-3.6331,-3.6363,-3.6326,-3.6308,-3.639,-3.6388,-3.6421,-3.6444,-3.6409,-3.6543,-3.6514,-3.6457,-3.6366,-3.652,-3.6575,-3.6598,-3.6287,-3.6284,-3.6282,-3.628,0,0,-3.6389,-3.6382,-3.6406,-3.6414,-3.6417,-3.6457,-3.6526,-3.6559,-3.6587,-3.6604,-3.6659,-3.6723,-3.667,-3.6686,-3.6651,-3.6705,-3.6849,-3.6641,-3.664,-3.6678,-3.6995,-3.7036,-3.7063,-3.6814,-3.6818,-3.6821,-3.6993,0,-3.656,-3.6676,-3.6635,-3.6753,-3.68,-3.6727,-3.6786,-3.6795,-3.6781,-3.682,-3.6804,-3.6849,-3.6776,-3.6785,-3.6836,-3.6821,-3.6911,-3.6808,-3.6864,-3.6867,-3.6861,-3.7092,-3.7136,-3.7298,-3.7015,-3.7019,-3.7021,0,-3.6775,-3.68,-3.6923,-3.6917,-3.6936,-3.699,-3.7017,-3.7056,-3.7065,-3.705,-3.7069,-3.7023,-3.7091,-3.7003,-3.7095,-3.7025,-3.7047,-3.7043,-3.7048,-3.7049,-3.6951,-3.7097,-3.7348,-3.7372,-3.7055,-3.7052,-3.705,0,-3.6945,-3.701,-3.7091,-3.7101,-3.7097,-3.7137,-3.7138,-3.7141,-3.7164,-3.7189,-3.7203,-3.7236,-3.7253,-3.728,-3.7244,-3.7184,-3.7341,-3.7251,-3.733,-3.7331,-3.7364,-3.7362,-3.7619,-3.7383,-3.7383,-3.7382,-3.7382,0,-3.7139,-3.7216,-3.7167,-3.7217,-3.7302,-3.7255,-3.7341,-3.7333,-3.7338,-3.7385,-3.7325,-3.7371,-3.7322,-3.7364,-3.7338,-3.7417,-3.7426,-3.7416,-3.7407,-3.742,-3.7421,-3.7431,-3.7417,-3.7389,-3.7387,-3.7386,-3.7385,0,-3.7342,-3.7313,-3.7396,-3.7387,-3.7386,-3.7449,-3.7441,-3.7487,-3.7469,-3.753,-3.7542,-3.7514,-3.756,-3.7528,-3.7575,-3.7557,-3.766,-3.7638,-3.7657,-3.765,-3.7731,-3.7723,-3.8001,-3.8035,-3.7779,-3.7782,-3.7784,0,-3.7466,-3.7523,-3.752,-3.7548,-3.7552,-3.7597,-3.762,-3.7577,-3.7603,-3.7619,-3.7663,-3.7704,-3.7734,-3.7812,-3.7796,-3.7831,-3.7807,-3.7903,-3.7812,-3.7823,-3.7806,-3.7802,-3.7807,-3.792,-3.7923,-3.7925,-3.7927,0,-3.7688,-3.7671,-3.7706,-3.7737,-3.7766,-3.7788,-3.7806,-3.7832,-3.7789,-3.7822,-3.7868,-3.7892,-3.7939,-3.798,-3.801,-3.8011,-3.7962,-3.7957,-3.7976,-3.7988,-3.7996,-3.7991,-3.7704,-3.7949,-3.7947,-3.7946,-3.7944,-3.7944,-3.7853,-3.7901,-3.7906,-3.7947,-3.7956,-3.7974,-3.8017,-3.8005,-3.8043,-3.8077,-3.8051,-3.8106,-3.8114,-3.8149,-3.8157,-3.8199,-3.816,-3.819,-3.8197,-3.8204,-3.8214,-3.7992,-3.8205,-3.8204,-3.8204,-3.8203,-3.8203,0,-3.807,-3.807,-3.8109,-3.8135,-3.8168,-3.8121,-3.8138,-3.8168,-3.8217,-3.8229,-3.8261,-3.8314,-3.8355,-3.8343,-3.8379,-3.8416,-3.8394,-3.8427,-3.8422,-3.8423,-3.8248,-3.8226,-3.8443,-3.8443,-3.8443,-3.8443,-3.8443,-3.8443,-3.8187,-3.8264,-3.8249,-3.833,-3.833,-3.8383,-3.8397,-3.8413,-3.8422,-3.8485,-3.8518,-3.851,-3.8513,-3.8549,-3.8585,-3.858,-3.8595,-3.8636,-3.8623,-3.8459,-3.8435,-3.8412,-3.8391,-3.864,-3.864,-3.8794,-3.8795,-3.8796]},{"header":{"parameterUnit":"m.s-1","parameterCategory":1,"la1":30.2991,"la2":30.254,"lo1":-89.0895,"lo2":-89.0444,"dy":0.0017,"dx":0.0017,"nx":28,"ny":28,"refTime":"2024-08-24T03:00:00:Z","depth":0,"parameterNumber":3,"parameterNumberName":"V-component_of_WINDS"},"data":[0,0,0,0,0,0,0,0,0,0,0,0,0,0,0,0,0,0,0,0,0,0,0,0,0,0,0,0,0,0,0,0,0,0,0,0,0,0,0,0,0,0,0,0,0,0,0,0,0,0,0,0,0,0,0,0,0,0,-1.275,-1.2751,0,-1.2853,-1.2854,-1.2855,-1.2903,-1.2903,-1.2902,-1.2902,-1.3008,-1.3011,-1.3014,0,0,0,0,0,0,0,0,0,0,0,0,0,-1.2594,-1.2597,-1.275,-1.2751,-1.2752,-1.2853,-1.2854,-1.2856,-1.2903,-1.2903,-1.2902,-1.2902,-1.3007,-1.3011,-1.3014,0,0,0,0,0,0,0,0,0,0,0,0,0,-1.2676,-1.2597,-1.275,-1.2788,-1.2792,-1.2852,-1.2854,-1.2856,-1.2903,-1.2903,-1.2902,-1.2902,-1.3006,-1.301,-1.3015,-1.3044,0,0,-1.3028,-1.303,0,0,0,0,0,0,0,0,-1.2671,-1.2681,-1.2781,-1.2785,-1.2791,-1.2865,-1.2838,-1.2919,-1.2903,-1.2861,-1.2902,-1.2902,-1.2961,-1.2969,-1.2988,-1.3049,-1.3054,-1.3028,-1.3031,-1.3033,-1.3034,0,0,0,0,0,0,0,-1.2665,-1.2677,-1.2791,-1.2782,-1.2788,-1.28,-1.2812,-1.2854,-1.291,-1.2864,-1.2868,-1.288,-1.2963,-1.2984,-1.2991,-1.3056,-1.3028,-1.3032,-1.3035,-1.3037,-1.3146,-1.3146,0,0,0,0,0,0,-1.2653,-1.2672,-1.2787,-1.2794,-1.2729,-1.2803,-1.2816,-1.2841,-1.291,-1.292,-1.288,-1.2881,-1.2977,-1.2986,-1.2995,-1.3035,-1.3033,-1.3037,-1.3039,-1.3146,-1.3146,-1.3146,0,0,0,0,0,0,-1.265,-1.2663,-1.2783,-1.2734,-1.275,-1.2806,-1.2834,-1.2843,-1.2864,-1.2921,-1.2932,-1.2891,-1.2977,-1.2989,-1.3032,-1.3039,-1.3039,-1.3043,-1.3145,-1.3146,-1.3146,-1.3114,0,0,0,0,0,0,-1.2645,-1.2662,-1.2673,-1.2734,-1.2753,-1.2818,-1.2834,-1.2845,-1.2871,-1.2875,-1.2934,-1.2944,-1.2978,-1.3025,-1.3036,-1.3045,-1.3046,-1.3145,-1.3146,-1.3146,-1.3114,-1.3113,-1.3112,0,0,0,0,0,-1.2639,-1.266,-1.2674,-1.2687,-1.2769,-1.2818,-1.2829,-1.2867,-1.2872,-1.2884,-1.2921,-1.2942,-1.3036,-1.3029,-1.3042,-1.3052,-1.3145,-1.3145,-1.3146,-1.3115,-1.3113,-1.3112,0,0,0,0,0,0,-1.26,-1.2669,-1.2685,-1.2726,-1.2766,-1.2826,-1.2843,-1.2864,-1.2904,-1.2905,-1.2951,-1.2964,-1.3003,-1.3032,-1.3023,-1.3084,-1.3092,-1.3096,-1.3064,-1.3063,-1.3062,-1.3054,-1.305,0,0,0,0,0,-1.2595,-1.263,-1.2689,-1.2719,-1.2738,-1.2787,-1.281,-1.2836,-1.2879,-1.2897,-1.2937,-1.2978,-1.3017,-1.3041,-1.308,-1.3118,-1.3132,-1.3132,-1.313,-1.3129,-1.3132,-1.3154,-1.3154,-1.3149,-1.3149,-1.3149,0,0,-1.2588,-1.263,-1.2649,-1.2712,-1.2746,-1.2781,-1.2801,-1.2837,-1.2863,-1.2902,-1.2945,-1.2976,-1.3025,-1.3065,-1.3085,-1.3091,-1.3136,-1.313,-1.3128,-1.3132,-1.3155,-1.3155,-1.3155,-1.3149,-1.3149,-1.3149,0,0,-1.2591,-1.2626,-1.2656,-1.2689,-1.274,-1.2772,-1.2779,-1.2837,-1.2858,-1.2902,-1.2932,-1.2964,-1.303,-1.3063,-1.3089,-1.3104,-1.3126,-1.3116,-1.3109,-1.313,-1.3131,-1.3131,-1.3137,-1.3139,-1.3118,-1.3118,-1.3118,0,-1.2575,-1.2628,-1.2668,-1.2702,-1.2729,-1.2766,-1.2796,-1.2826,-1.2888,-1.2905,-1.2911,-1.2994,-1.303,-1.3079,-1.3082,-1.3102,-1.3111,-1.311,-1.3127,-1.3129,-1.313,-1.3136,-1.3138,-1.3116,-1.3117,-1.3117,-1.3117,0,-1.2606,-1.2642,-1.266,-1.2718,-1.2747,-1.2779,-1.2823,-1.2848,-1.2871,-1.2902,-1.2946,-1.299,-1.3039,-1.3052,-1.3075,-1.3104,-1.3106,-1.3119,-1.3128,-1.3128,-1.3134,-1.3137,-1.3114,-1.3115,-1.3115,-1.3116,0,0,-1.2588,-1.2667,-1.2673,-1.2699,-1.2758,-1.2787,-1.282,-1.2868,-1.2888,-1.2929,-1.2958,-1.3013,-1.3025,-1.3054,-1.3081,-1.3099,-1.3109,-1.311,-1.3112,-1.3108,-1.3144,-1.3134,-1.3136,-1.3123,-1.3123,-1.3124,-1.314,0,-1.26,-1.2661,-1.2698,-1.2744,-1.2778,-1.2813,-1.2842,-1.2881,-1.2912,-1.2945,-1.2979,-1.3017,-1.3029,-1.3047,-1.3067,-1.3103,-1.3117,-1.3103,-1.3151,-1.3152,-1.3138,-1.3139,-1.313,-1.3142,-1.3142,-1.3143,-1.3143,0,-1.2622,-1.2661,-1.2711,-1.2766,-1.2782,-1.2807,-1.2853,-1.2885,-1.293,-1.2951,-1.2983,-1.301,-1.3046,-1.3052,-1.3103,-1.3093,-1.3114,-1.3135,-1.3136,-1.3143,-1.3148,-1.3146,-1.3147,-1.3149,-1.3147,-1.3147,-1.3147,0,-1.2604,-1.267,-1.2708,-1.273,-1.2794,-1.2812,-1.2839,-1.2884,-1.291,-1.295,-1.2968,-1.3011,-1.3035,-1.3069,-1.3107,-1.3107,-1.3154,-1.3163,-1.3173,-1.3172,-1.3181,-1.318,-1.3186,-1.3194,-1.3194,-1.3194,-1.3194,0,-1.2613,-1.2643,-1.2701,-1.2724,-1.2758,-1.28,-1.2832,-1.2863,-1.2902,-1.2932,-1.2965,-1.2993,-1.3041,-1.3075,-1.3105,-1.3142,-1.3153,-1.3171,-1.3179,-1.3168,-1.3166,-1.3184,-1.3184,-1.3195,-1.3195,-1.3195,-1.3195,0,-1.2599,-1.2639,-1.2684,-1.2741,-1.2756,-1.2778,-1.2828,-1.2852,-1.2883,-1.2921,-1.2933,-1.2982,-1.3023,-1.3065,-1.312,-1.314,-1.3178,-1.3188,-1.3162,-1.3167,-1.3174,-1.3173,-1.3192,-1.3197,-1.3201,-1.3201,-1.3201,0,-1.2603,-1.2626,-1.2686,-1.2708,-1.2735,-1.2771,-1.2797,-1.2839,-1.2865,-1.2918,-1.2936,-1.2979,-1.3017,-1.3081,-1.3122,-1.3165,-1.3176,-1.318,-1.3183,-1.3172,-1.3177,-1.3175,-1.3178,-1.3179,-1.3179,-1.3178,-1.3178,0,-1.2605,-1.2624,-1.2661,-1.2704,-1.2735,-1.2771,-1.2809,-1.2825,-1.2874,-1.2902,-1.2945,-1.2973,-1.303,-1.3073,-1.312,-1.3149,-1.3172,-1.3177,-1.3182,-1.3172,-1.3156,-1.3165,-1.3159,-1.3176,-1.3177,-1.3177,-1.3177,-1.3177,-1.2601,-1.2623,-1.2668,-1.2708,-1.274,-1.2775,-1.28,-1.2835,-1.2871,-1.292,-1.2942,-1.2985,-1.3029,-1.3095,-1.3124,-1.3158,-1.3164,-1.317,-1.3172,-1.3173,-1.3171,-1.315,-1.3166,-1.3167,-1.3167,-1.3167,-1.3167,0,-1.2605,-1.2635,-1.2672,-1.2723,-1.2754,-1.2773,-1.2815,-1.284,-1.2877,-1.2917,-1.2952,-1.3001,-1.3043,-1.3087,-1.3131,-1.315,-1.3161,-1.316,-1.3159,-1.3166,-1.3163,-1.3155,-1.315,-1.315,-1.315,-1.315,-1.315,-1.315,-1.2611,-1.2649,-1.2673,-1.2728,-1.2759,-1.2801,-1.2823,-1.2855,-1.2887,-1.294,-1.2974,-1.3003,-1.3044,-1.3091,-1.313,-1.3142,-1.3157,-1.3153,-1.3168,-1.3165,-1.3166,-1.3167,-1.3159,-1.3156,-1.3156,-1.3168,-1.3168,-1.3168]}]]